Vorticity
10 10 7 6 5 5 5 6 6 6 6 6 5 5 6 7 8 8 7 7 9 9 7 5 7 9 9 9 8 9 12 9 2 15 6 5 8 5 5 6 5 6 8 5 6
5 6 8 7 7 6 5 5 6 5 7 7 5 5 5 5 7 7 9 11 9 5 6 9 9 8 10 9 9 10 6 12 6 8 5 7 7 8 7 5 6 8 3 8 4
5 6 5 7 12 13 11 10 8 6 6 6 6 6 5 7 6 21 19 13 2 5 9 8 9 9 10 10 9 9 7 9 8 6 5 7 8 6 6 5 4 6 6 7 7
8 6 9 8 5 3 5 8 11 8 6 4 5 4 6 8 12 -2 1 3 8 9 8 8 7 8 7 14 7 10 9 5 6 5 5 4 6 5 6 4 5 5 5 4 6
18 8 10 9 10 8 6 7 8 11 13 14 9 4 6 5 6 9 11 10 11 10 7 8 8 8 10 4 10 11 15 4 7 3 9 6 5 6 7 9 3 6 3 4 4
8 11 8 4 3 4 3 5 7 8 15 11 15 22 2 -4 15 11 9 10 12 6 7 5 8 9 10 2 8 6 7 8 6 -1 7 8 5 13 -2 6 6 5 4 1 5
11 3 8 3 -1 9 1 8 11 13 10 15 9 15 22 13 0 1 11 15 6 6 3 2 2 1 -4 6 11 4 5 12 11 16 1 5 14 20 6 7 5 3 4 3 1
14 9 5 -1 -1 6 3 6 5 -2 10 5 8 13 13 8 14 2 3 -0 -3 -1 -8 -6 -2 4 10 5 10 9 25 20 4 -3 5 10 1 6 6 3 5 4 5 1 -3
15 6 3 4 7 2 5 5 4 6 5 14 3 25 30 22 27 10 6 12 19 -0 5 9 4 21 7 8 12 20 0 2 16 8 2 19 -6 5 -3 4 8 6 0 3 -0
12 11 1 6 9 1 11 7 8 6 14 -0 32 -0 6 -5 -10 -15 -0 5 2 8 21 25 31 9 4 9 -4 -8 1 6 0 -0 -3 16 7 12 6 7 4 9 1 0 17
12 10 5 -1 2 15 0 10 -3 15 -2 -4 13 16 13 12 5 5 8 14 13 30 25 22 8 1 5 7 7 6 8 6 16 9 17 21 1 6 4 8 9 2 -6 21 9
15 4 10 -6 10 -7 11 11 3 3 2 20 27 25 21 29 19 19 25 32 26 8 31 4 8 13 10 9 4 5 5 20 14 0 19 15 -1 11 22 11 7 -4 23 9 7
1 10 2 5 -6 5 -1 15 1 7 6 22 20 13 4 15 8 5 14 -1 3 4 5 6 -6 -5 1 6 5 5 15 8 0 16 32 16 43 -2 5 9 -8 14 7 5 9
10 2 -19 0 -12 18 22 13 11 -2 29 26 7 0 2 9 -7 29 12 5 8 2 10 21 19 18 11 6 7 16 13 -5 20 25 6 -3 -1 14 -12 -12 11 14 6 6 10
21 24 -5 10 11 25 15 9 7 12 16 8 6 8 0 8 2 6 6 7 4 5 9 3 6 8 8 12 5 -3 -1 13 20 15 8 13 25 7 -21 3 10 10 6 8 10
18 6 28 -1 12 8 28 9 -0 17 10 4 6 -4 2 3 13 4 19 8 -1 16 4 12 13 14 2 4 10 12 9 21 17 8 13 8 14 4 -8 3 6 11 8 8 14
19 1 -8 30 5 21 13 9 17 5 5 13 -14 6 -5 25 15 16 11 24 3 8 16 -6 13 6 6 11 13 5 16 14 14 10 4 -12 21 -11 -19 10 4 11 8 8 13
9 24 -3 -10 3 28 17 2 17 2 -8 -14 11 -9 16 27 11 0 4 12 32 4 6 12 11 15 8 4 2 16 12 13 9 6 -1 12 8 -13 -17 11 8 19 7 8 14
11 10 21 10 13 18 -8 22 -8 19 18 -8 -1 27 11 -2 15 18 9 22 7 40 -9 12 16 7 8 7 7 7 8 12 8 9 12 8 10 6 -5 8 10 18 7 7 16
11 12 12 13 -8 -5 -24 13 -4 7 1 23 2 6 0 1 25 13 17 4 16 15 14 10 14 12 13 7 10 6 9 9 8 8 13 10 12 -20 5 9 8 15 6 7 14
12 13 16 17 22 20 28 2 7 13 9 14 30 -21 11 4 9 16 13 1 10 8 17 8 6 2 12 8 4 9 8 10 16 10 9 6 15 -24 2 8 7 11 6 7 9
11 17 10 10 23 17 17 10 3 4 26 27 -10 8 10 -2 18 21 4 6 9 10 4 10 7 5 -3 11 8 5 5 6 10 8 9 6 14 -20 6 9 9 11 7 8 7
10 10 13 7 8 3 13 14 5 1 18 11 -7 -5 -1 7 27 17 14 11 24 12 21 13 10 13 16 15 16 12 10 7 8 17 10 4 -3 4 8 9 12 12 7 8 6
13 14 4 -1 14 10 13 22 19 16 4 19 8 2 19 4 22 -10 3 10 9 23 -2 5 9 2 -8 -11 1 4 6 9 6 13 5 -1 -9 6 7 10 14 13 7 7 5
10 1 2 -10 -6 -2 6 5 5 0 -0 7 24 14 1 23 17 19 17 14 12 5 31 2 2 1 11 10 8 6 9 9 9 4 8 -17 9 5 9 9 12 15 5 9 6
7 14 12 11 5 24 19 11 5 19 22 17 8 -1 14 18 3 -5 7 18 6 24 10 6 -0 8 7 18 13 11 3 6 9 10 18 12 21 6 11 9 10 15 4 9 7
6 9 8 7 -2 11 -0 -4 -13 13 9 12 11 15 11 22 14 12 7 22 -3 6 14 5 14 10 16 7 1 44 44 35 4 9 13 15 8 8 12 9 10 15 5 7 8
Height
3129 3127 3125 3123 3122 3120 3117 3116 3114 3113 3110 3108 3105 3104 3101 3099 3097 3095 3092 3091 3089 3088 3087 3086 3084 3083 3081 3079 3078 3076 3075 3071 3071 3070 3069 3069 3068 3066 3065 3063 3061 3061 3058 3054 3050
3128 3125 3123 3121 3119 3117 3115 3113 3111 3109 3107 3106 3103 3101 3098 3096 3093 3091 3090 3087 3086 3085 3084 3083 3081 3080 3078 3076 3074 3073 3071 3069 3068 3066 3065 3064 3063 3062 3061 3058 3056 3054 3053 3049 3044
3126 3124 3121 3119 3117 3114 3112 3111 3109 3107 3104 3101 3099 3097 3095 3092 3091 3087 3085 3083 3083 3082 3080 3079 3078 3076 3075 3074 3072 3069 3068 3067 3065 3063 3062 3060 3058 3057 3055 3054 3051 3047 3045 3043 3039
3123 3121 3118 3116 3115 3112 3109 3107 3105 3103 3101 3098 3096 3093 3091 3089 3090 3086 3083 3081 3080 3079 3077 3075 3074 3072 3072 3072 3069 3067 3064 3063 3062 3060 3059 3057 3054 3052 3050 3049 3045 3041 3037 3033 3029
3120 3118 3116 3114 3112 3109 3106 3104 3101 3098 3096 3093 3090 3089 3088 3087 3086 3082 3080 3078 3076 3075 3074 3072 3071 3069 3068 3068 3066 3063 3062 3060 3058 3056 3054 3052 3049 3048 3045 3043 3040 3036 3033 3028 3023
3118 3115 3113 3112 3109 3106 3104 3101 3097 3094 3091 3087 3085 3083 3084 3084 3081 3078 3077 3075 3073 3071 3070 3069 3067 3066 3065 3065 3065 3061 3059 3057 3054 3052 3050 3048 3045 3042 3042 3039 3036 3033 3029 3024 3017
3115 3113 3111 3109 3106 3103 3101 3098 3094 3090 3087 3084 3081 3078 3078 3078 3077 3076 3074 3072 3071 3068 3066 3066 3065 3064 3062 3062 3060 3058 3056 3054 3051 3049 3047 3045 3041 3039 3037 3034 3031 3028 3024 3019 3013
3111 3109 3107 3105 3103 3100 3098 3095 3092 3088 3084 3081 3077 3074 3071 3070 3070 3071 3070 3070 3068 3066 3065 3063 3061 3060 3058 3057 3056 3054 3052 3051 3048 3046 3044 3042 3038 3035 3033 3031 3027 3024 3018 3012 3007
3106 3104 3102 3101 3099 3097 3094 3091 3088 3085 3082 3077 3074 3070 3068 3065 3065 3065 3065 3064 3063 3062 3060 3057 3056 3055 3056 3054 3053 3050 3048 3047 3046 3041 3040 3039 3034 3032 3029 3026 3023 3018 3012 3007 2999
3101 3099 3097 3095 3093 3092 3090 3087 3085 3082 3079 3074 3069 3071 3067 3065 3062 3061 3060 3059 3058 3056 3054 3053 3052 3052 3052 3051 3049 3047 3046 3044 3043 3039 3036 3032 3031 3029 3026 3023 3019 3014 3008 3001 2993
3094 3093 3091 3090 3088 3087 3087 3084 3083 3079 3074 3072 3068 3063 3061 3060 3059 3058 3054 3052 3051 3050 3047 3047 3050 3049 3048 3047 3046 3044 3042 3041 3039 3036 3031 3029 3027 3026 3024 3021 3017 3012 3004 2994 2986
3089 3087 3086 3085 3083 3082 3081 3080 3078 3074 3068 3066 3062 3059 3056 3056 3055 3053 3050 3048 3046 3046 3044 3047 3046 3046 3045 3045 3043 3041 3038 3038 3035 3031 3028 3025 3022 3022 3022 3019 3016 3007 2998 2988 2978
3082 3082 3079 3080 3079 3078 3076 3076 3074 3070 3067 3061 3059 3056 3056 3055 3053 3051 3048 3045 3045 3045 3045 3045 3045 3043 3043 3042 3041 3038 3037 3036 3032 3028 3025 3021 3017 3018 3019 3017 3016 3008 2997 2986 2975
3075 3076 3073 3075 3074 3072 3071 3069 3070 3068 3062 3059 3057 3056 3055 3053 3052 3049 3046 3047 3045 3045 3044 3043 3042 3041 3041 3040 3039 3037 3035 3032 3028 3027 3025 3023 3018 3016 3018 3018 3012 3002 2991 2982 2971
3068 3067 3069 3070 3067 3064 3063 3063 3065 3066 3062 3058 3056 3055 3053 3052 3052 3047 3045 3043 3044 3045 3046 3044 3041 3041 3040 3039 3037 3036 3032 3029 3026 3025 3024 3022 3019 3014 3015 3011 3005 2997 2988 2981 2971
3061 3062 3062 3063 3062 3056 3058 3060 3062 3066 3057 3054 3054 3053 3052 3049 3048 3044 3042 3042 3042 3042 3042 3041 3040 3039 3039 3037 3036 3033 3031 3027 3025 3024 3024 3020 3020 3016 3012 3007 3003 2996 2990 2981 2970
3057 3057 3059 3057 3056 3055 3053 3056 3060 3057 3055 3053 3052 3050 3048 3045 3044 3041 3039 3039 3041 3042 3040 3041 3039 3038 3038 3037 3035 3032 3030 3027 3026 3025 3022 3019 3019 3016 3014 3009 3002 2995 2988 2980 2969
3052 3053 3054 3052 3051 3052 3053 3054 3055 3050 3050 3049 3049 3047 3045 3044 3042 3039 3036 3035 3036 3039 3039 3038 3039 3037 3036 3036 3034 3031 3031 3029 3031 3027 3023 3019 3017 3016 3014 3009 3005 2997 2989 2980 2970
3047 3049 3050 3050 3050 3049 3050 3050 3050 3050 3047 3046 3047 3043 3041 3043 3042 3038 3034 3033 3035 3036 3039 3037 3036 3035 3035 3034 3035 3030 3029 3029 3026 3026 3026 3019 3017 3016 3013 3010 3004 2997 2990 2979 2970
3043 3043 3045 3045 3045 3046 3046 3046 3046 3046 3045 3043 3043 3042 3040 3041 3040 3037 3033 3033 3033 3034 3035 3037 3036 3034 3033 3033 3032 3030 3030 3027 3025 3031 3026 3017 3015 3016 3012 3007 3002 2995 2987 2980 2973
3038 3038 3041 3039 3040 3040 3041 3041 3040 3041 3043 3042 3040 3038 3039 3038 3036 3035 3032 3032 3031 3032 3033 3034 3036 3035 3033 3031 3030 3030 3028 3027 3027 3028 3029 3027 3017 3016 3012 3007 3002 2995 2989 2982 2975
3034 3034 3035 3035 3037 3035 3036 3037 3036 3036 3037 3034 3034 3035 3035 3036 3032 3031 3029 3029 3030 3031 3032 3033 3033 3031 3032 3030 3029 3027 3027 3027 3027 3028 3025 3025 3019 3016 3012 3007 3003 2997 2992 2986 2979
3030 3030 3032 3032 3032 3032 3033 3033 3033 3033 3033 3031 3031 3032 3032 3031 3031 3027 3026 3026 3027 3029 3030 3031 3031 3030 3029 3031 3028 3026 3026 3026 3025 3024 3023 3025 3018 3015 3012 3008 3004 2998 2994 2988 2984
3029 3029 3029 3028 3028 3029 3029 3028 3028 3029 3029 3028 3027 3028 3027 3026 3025 3024 3023 3024 3024 3026 3028 3030 3030 3029 3029 3028 3027 3025 3024 3024 3024 3022 3021 3019 3017 3016 3011 3009 3005 3000 2996 2991 2987
3025 3025 3025 3025 3025 3026 3026 3025 3025 3025 3024 3024 3022 3023 3023 3022 3021 3020 3020 3021 3021 3022 3025 3028 3027 3026 3026 3025 3024 3022 3022 3021 3020 3020 3019 3017 3016 3014 3010 3008 3005 3000 2998 2995 2991
3022 3021 3022 3021 3022 3022 3022 3021 3021 3020 3020 3019 3019 3018 3018 3017 3018 3018 3018 3017 3019 3021 3022 3024 3025 3024 3024 3023 3021 3019 3018 3018 3018 3017 3016 3015 3014 3012 3010 3008 3005 3001 2999 2997 2994
3016 3017 3017 3017 3017 3018 3018 3018 3018 3017 3015 3014 3014 3014 3012 3013 3013 3014 3014 3015 3016 3019 3020 3021 3022 3022 3021 3021 3019 3015 3012 3013 3015 3015 3015 3015 3014 3011 3010 3008 3004 3002 3000 2998 2996